Meteo Giornale » Osservazioni meteo Francia » Dole Tavaux

ore: 12:30 - Osservazioni Meteo Dole Tavaux
Lat. 47° 2' N Lon. 5° 26' E Alt. 196 metri s.l.m.

foschia Europe/Paris

5 °C

Foschia

Temp. 24 Ore

-2 °C

5 °C

Nord

5.5 Km/h

Dew point 3 °C

Umidità 86 %

Visibilità  5 Km

Il sole sorge alle ore 07:54

Il sole tramonta alle ore 16:56

Data e Ora Cielo e Fenomeni T °C DP °C Um. % Pres. hPa Vis. km Vento km/h
Oggi h: 12:30 foschia Foschia 5 3 86 1019 5 N 5.5
Oggi h: 12:00 sereno Sereno 4 3 93 1020 6 N 3.7
Oggi h: 11:30 sereno Sereno 3 2 93 1020 7 N 1.8
Oggi h: 11:00 poco_nuvoloso Poco Nuvoloso 2 1 93 1020 6 N 1.8
Oggi h: 10:30 sereno Sereno 1 0 93 1020 6 N 5.5
Oggi h: 10:00 sereno Sereno -0 -0 100 1020 6 N 1.8
Oggi h: 09:30 sereno Sereno -1 -1 100 1020 6 N 0
Oggi h: 09:00 foschia Foschia -1 -2 92 1020 5 N 1.8
Oggi h: 08:30 foschia Foschia -2 -2 100 1020 5 N 3.7
Oggi h: 08:00 foschia Foschia -2 -2 100 1019 5 N 5.5
Oggi h: 07:30 poco_nuvoloso Poco Nuvoloso -2 -2 100 1019 6 N 5.5
Oggi h: 07:00 nebbia Banco di Nebbia -2 -2 100 1019 0.5 N 3.7
Oggi h: 06:30 nebbia Nebbia Congelantesi -2 -2 100 1019 0.45 N 3.7
Oggi h: 06:00 nebbia Nebbia Congelantesi -1 -2 92 1019 0.5 N 3.7
Oggi h: 04:00 nebbia Nebbia Congelantesi -1 -1 100 1019 0.45 N 5.5
Oggi h: 03:30 nebbia Nebbia Congelantesi -1 -1 100 1019 0.35 E 7.4
Oggi h: 03:00 nebbia Nebbia Congelantesi -0 -1 92 1019 0.3 N 5.5
Oggi h: 02:30 nebbia Nebbia Congelantesi -0 -0 100 1019 0.3 N 3.7
Oggi h: 02:00 nebbia Nebbia Congelantesi -0 -0 100 1019 0.3 N 1.8
Oggi h: 01:30 nebbia Nebbia Congelantesi -0 -0 100 1020 0.3 N 1.8
Oggi h: 01:00 nebbia Nebbia Congelantesi -0 -0 100 1020 0.35 N 3.7
Oggi h: 00:30 nebbia Nebbia Congelantesi -0 -0 100 1020 0.35 N 5.5
Oggi h: 00:00 nebbia Nebbia 0 0 100 1020 0.3 E/NE 7.4
Ieri h: 23:30 nebbia Nebbia 0 -0 100 1020 0.3 N 3.7
Ieri h: 23:00 nebbia Nebbia 0 -0 100 1020 0.35 N 1.8
Ieri h: 22:30 nebbia Nebbia 0 -0 100 1020 0.35 N 1.8
Ieri h: 22:00 nebbia Nebbia 0 0 100 1020 0.4 N 3.7
Ieri h: 21:30 nebbia Nebbia 0 0 100 1021 0.4 N 3.7
Ieri h: 21:00 nebbia Nebbia 0 0 100 1021 0.45 N 5.5
Ieri h: 20:30 nebbia Nebbia 1 0 93 1021 0.4 N/NE 9.3
Ieri h: 20:00 nebbia Nebbia 1 1 100 1021 0.35 N/NE 7.4
Ieri h: 19:30 nebbia Nebbia 1 1 100 1021 0.4 E/NE 9.3
Ieri h: 19:00 nebbia Nebbia 1 1 100 1021 0.35 NE 7.4
Ieri h: 18:30 nebbia Nebbia 2 1 93 1021 0.4 N 3.7
Ieri h: 18:00 nebbia Nebbia 2 1 93 1022 0.55 N 3.7
Ieri h: 17:00 foschia Foschia 2 2 100 1022 1 N 5.5
Ieri h: 16:00 foschia Foschia 2 2 100 1022 2 N 3.7
Ieri h: 15:30 foschia Foschia 2 2 100 1022 2 N 5.5
Ieri h: 15:00 foschia Foschia 2 2 100 1023 2 N 5.5
Ieri h: 14:30 nebbia Nebbia 2 1 93 1023 0.75 N 3.7
Ieri h: 14:00 nebbia Nebbia 1 1 100 1024 0.45 N 5.5
Ieri h: 13:30 nebbia Nebbia 1 0 93 1024 0.3 N 3.7
Ieri h: 13:00 nebbia Nebbia 0 0 100 1024 0.25 N 3.7